Flag for U.S.A. Weather past 2 weeks in Overland Park, Kansas, U.S.A.

Now
54 °F

Clear.


Feels Like: 53 °F
Forecast: 49 / 69 °F
Wind: 6 mph from Northeast

Location: Johnson County Executive Airport

Current Time: Sep 16, 2014 at 12:28:24 AM

Latest Report: Sep 15, 2014 at 11:53 PM


Visibility: 10 mi

Pressure: 30.22 "Hg

Humidity: 86%

Dew point: 50 °F

Location of Overland ParkLocation

Historic Weather in Overland Park — Graph

°F

Overland Park temperature yesterday

Maximum temperature yesterday: 71 °F (at 10:53 AM)
Minimum temperature yesterday: 55 °F (at 10:53 PM)
Average temperature yesterday: 64 °F

Past Weeks' High & Low Weather Summary

 TemperatureHumidityPressure
High91 °F (Sep 4, 2:53 PM)100% (Aug 31, 11:53 PM)30.42 "Hg (Aug 31, 11:53 PM)
Low40 °F (Sep 13, 5:53 AM)46% (Sep 6, 3:53 PM)29.52 "Hg (Sep 10, 12:53 AM)
Average67 °F79%30.03 "Hg
* Reported Aug 31 10:53 PM — Sep 15 10:53 PM, Overland Park, Weather by CustomWeather, © 2014

Note: Actual official high and low records may vary slightly from our data, if they occured in-between our weather recording intervals... More about our weather records

Advertising

Overland Park weather history for previous 24 hours

 ConditionsComfort  
Time TempWeatherWind HumidityBarometerVisibility
10:53 PM
Sep 15
55 °FClear.5 mph83%30.22 "Hg10 mi
9:53 PM57 °FClear.6 mph78%30.21 "Hg10 mi
8:53 PM60 °FOvercast.12 mph75%30.19 "Hg10 mi
7:53 PM61 °FMostly cloudy.14 mph75%30.16 "Hg10 mi
6:53 PM64 °FOvercast.13 mph78%30.15 "Hg10 mi
5:53 PM67 °FOvercast.12 mph79%30.13 "Hg10 mi
4:53 PM67 °FOvercast.14 mph79%30.12 "Hg10 mi
3:53 PM68 °FMostly cloudy.9 mph78%30.11 "Hg10 mi
3:04 PM66 °FCloudy.13 mph90%30.13 "Hg9 mi
2:53 PM66 °FMostly cloudy.15 mph90%30.11 "Hg8 mi
1:53 PM66 °FLight rain. Fog.10 mph93%30.10 "Hg3 mi
12:53 PM68 °FFog.10 mph90%30.09 "Hg5 mi
11:53 AM70 °FOvercast.7 mph84%30.06 "Hg10 mi
10:53 AM71 °FOvercast.8 mph78%30.06 "Hg10 mi
9:53 AM70 °FPartly sunny.10 mph81%30.05 "Hg10 mi
8:53 AM66 °FPartly sunny.6 mph90%30.05 "Hg10 mi
7:53 AM63 °FPassing clouds.8 mph97%30.03 "Hg10 mi
6:53 AM61 °FPassing clouds.9 mph97%30.03 "Hg10 mi
5:53 AM60 °FClear.7 mph96%30.03 "Hg10 mi
4:53 AM60 °FPartly cloudy.8 mph93%30.03 "Hg10 mi
3:53 AM59 °FPassing clouds.6 mph93%30.03 "Hg10 mi
2:53 AM60 °FClear.6 mph90%30.05 "Hg10 mi
1:53 AM61 °FPassing clouds.6 mph87%30.06 "Hg10 mi
12:53 AM60 °FClear.6 mph90%30.05 "Hg10 mi
Weather by CustomWeather, © 2014

See weather overviewHow to use our weather pages